TimePST,TemperatureF,Dew PointF,Humidity,Sea Level PressureIn,VisibilityMPH,Wind Direction,Wind SpeedMPH,Gust SpeedMPH,PrecipitationIn,Events,Conditions,WindDirDegrees,DateUTC
12:10 AM,32.0,23.0,69,30.40,10.0,North,4.6,-,N/A,,Clear,350,2013-03-02 08:10:00
12:30 AM,33.8,24.8,70,30.40,10.0,Calm,Calm,-,N/A,,Clear,0,2013-03-02 08:30:00
12:50 AM,35.6,24.8,65,30.39,10.0,Calm,Calm,-,N/A,,Clear,0,2013-03-02 08:50:00
1:15 AM,28.4,21.2,74,30.39,10.0,Calm,Calm,-,N/A,,Clear,0,2013-03-02 09:15:00
1:30 AM,32.0,24.8,75,30.39,10.0,North,3.5,-,N/A,,Clear,360,2013-03-02 09:30:00
1:50 AM,32.0,23.0,69,30.39,10.0,Calm,Calm,-,N/A,,Clear,0,2013-03-02 09:50:00
2:15 AM,32.0,23.0,69,30.38,10.0,Calm,Calm,-,N/A,,Clear,0,2013-03-02 10:15:00
2:30 AM,32.0,23.0,69,30.38,10.0,North,3.5,-,N/A,,Clear,360,2013-03-02 10:30:00
2:50 AM,32.0,24.8,75,30.37,10.0,Calm,Calm,-,N/A,,Clear,0,2013-03-02 10:50:00
3:15 AM,28.4,21.2,74,30.36,10.0,WNW,3.5,-,N/A,,Clear,290,2013-03-02 11:15:00
3:35 AM,30.2,23.0,75,30.35,10.0,Calm,Calm,-,N/A,,Clear,0,2013-03-02 11:35:00
3:55 AM,32.0,23.0,69,30.35,10.0,Calm,Calm,-,N/A,,Clear,0,2013-03-02 11:55:00
4:10 AM,32.0,24.8,75,30.34,10.0,Calm,Calm,-,N/A,,Clear,0,2013-03-02 12:10:00
4:30 AM,28.4,23.0,80,30.35,10.0,Calm,Calm,-,N/A,,Clear,0,2013-03-02 12:30:00
4:55 AM,32.0,24.8,75,30.34,10.0,ESE,3.5,-,N/A,,Clear,110,2013-03-02 12:55:00
5:10 AM,32.0,24.8,75,30.34,10.0,Calm,Calm,-,N/A,,Clear,0,2013-03-02 13:10:00
5:30 AM,28.4,23.0,80,30.33,10.0,ENE,4.6,-,N/A,,Clear,70,2013-03-02 13:30:00
5:55 AM,28.4,24.8,86,30.34,10.0,Calm,Calm,-,N/A,,Clear,0,2013-03-02 13:55:00
6:10 AM,28.4,23.0,80,30.33,10.0,Calm,Calm,-,N/A,,Clear,0,2013-03-02 14:10:00
6:30 AM,28.4,23.0,80,30.32,10.0,NNW,4.6,-,N/A,,Clear,330,2013-03-02 14:30:00
6:50 AM,28.4,23.0,80,30.32,10.0,North,6.9,-,N/A,,Clear,10,2013-03-02 14:50:00
7:15 AM,30.2,24.8,80,30.32,10.0,ENE,4.6,-,N/A,,Clear,70,2013-03-02 15:15:00
7:35 AM,33.8,24.8,70,30.33,10.0,South,4.6,-,N/A,,Clear,180,2013-03-02 15:35:00
7:55 AM,35.6,26.6,70,30.33,10.0,Calm,Calm,-,N/A,,Clear,0,2013-03-02 15:55:00
8:15 AM,39.2,26.6,61,30.33,10.0,SSW,3.5,-,N/A,,Clear,200,2013-03-02 16:15:00
8:35 AM,41.0,28.4,61,30.32,10.0,Calm,Calm,-,N/A,,Clear,0,2013-03-02 16:35:00
8:55 AM,44.6,28.4,53,30.32,10.0,Calm,Calm,-,N/A,,Clear,0,2013-03-02 16:55:00
9:15 AM,46.4,26.6,46,30.31,10.0,Calm,Calm,-,N/A,,Clear,0,2013-03-02 17:15:00
9:35 AM,48.2,28.4,46,30.31,10.0,Calm,Calm,-,N/A,,Clear,0,2013-03-02 17:35:00
9:55 AM,48.2,28.4,46,30.31,10.0,Calm,Calm,-,N/A,,Clear,0,2013-03-02 17:55:00
10:15 AM,50.0,26.6,40,30.31,10.0,ESE,3.5,-,N/A,,Clear,120,2013-03-02 18:15:00
10:35 AM,51.8,26.6,38,30.30,10.0,Calm,Calm,-,N/A,,Clear,0,2013-03-02 18:35:00
10:50 AM,53.6,26.6,35,30.29,10.0,North,5.8,-,N/A,,Clear,350,2013-03-02 18:50:00
11:15 AM,55.4,24.8,31,30.29,10.0,Calm,Calm,-,N/A,,Clear,0,2013-03-02 19:15:00
11:30 AM,55.4,24.8,31,30.28,10.0,West,3.5,-,N/A,,Clear,260,2013-03-02 19:30:00
11:50 AM,57.2,19.4,23,30.27,10.0,WSW,9.2,-,N/A,,Clear,240,2013-03-02 19:50:00
12:15 PM,57.2,19.4,23,30.26,10.0,WSW,5.8,-,N/A,,Clear,250,2013-03-02 20:15:00
12:30 PM,57.2,19.4,23,30.25,10.0,West,10.4,-,N/A,,Clear,270,2013-03-02 20:30:00
12:50 PM,57.2,19.4,23,30.23,10.0,SW,5.8,-,N/A,,Clear,230,2013-03-02 20:50:00
1:10 PM,59.0,19.4,22,30.22,10.0,South,3.5,-,N/A,,Clear,170,2013-03-02 21:10:00
1:30 PM,59.0,21.2,23,30.21,10.0,SE,5.8,-,N/A,,Clear,140,2013-03-02 21:30:00
1:50 PM,59.0,21.2,23,30.21,10.0,WSW,12.7,20.7,N/A,,Clear,250,2013-03-02 21:50:00
2:10 PM,59.0,21.2,23,30.20,10.0,West,18.4,23.0,N/A,,Clear,260,2013-03-02 22:10:00
2:30 PM,62.6,19.4,19,30.19,10.0,West,23.0,28.8,N/A,,Clear,260,2013-03-02 22:30:00
2:55 PM,62.6,19.4,19,30.18,10.0,West,18.4,26.5,N/A,,Clear,270,2013-03-02 22:55:00
3:10 PM,60.8,19.4,20,30.18,10.0,WSW,17.3,25.3,N/A,,Clear,250,2013-03-02 23:10:00
3:30 PM,60.8,21.2,22,30.17,10.0,WSW,20.7,25.3,N/A,,Clear,250,2013-03-02 23:30:00
3:50 PM,60.8,23.0,23,30.17,10.0,WSW,17.3,21.9,N/A,,Clear,250,2013-03-02 23:50:00
4:30 PM,57.2,23.0,27,30.17,10.0,West,15.0,20.7,N/A,,Clear,260,2013-03-03 00:30:00
4:50 PM,57.2,23.0,27,30.17,10.0,West,12.7,-,N/A,,Clear,260,2013-03-03 00:50:00
5:30 PM,55.4,23.0,29,30.18,10.0,WSW,10.4,-,N/A,,Clear,250,2013-03-03 01:30:00
5:55 PM,53.6,23.0,30,30.17,10.0,West,9.2,-,N/A,,Clear,260,2013-03-03 01:55:00
6:10 PM,53.6,23.0,30,30.17,10.0,WSW,8.1,-,N/A,,Clear,250,2013-03-03 02:10:00
6:30 PM,51.8,23.0,33,30.17,10.0,WSW,9.2,-,N/A,,Clear,250,2013-03-03 02:30:00
6:50 PM,51.8,23.0,33,30.17,10.0,WSW,11.5,-,N/A,,Scattered Clouds,240,2013-03-03 02:50:00
7:10 PM,51.8,23.0,33,30.17,10.0,WSW,15.0,-,N/A,,Overcast,250,2013-03-03 03:10:00
7:30 PM,51.8,23.0,33,30.17,10.0,WSW,11.5,-,N/A,,Overcast,240,2013-03-03 03:30:00
7:50 PM,50.0,23.0,35,30.17,10.0,WSW,10.4,-,N/A,,Overcast,250,2013-03-03 03:50:00
8:10 PM,50.0,23.0,35,30.16,10.0,WSW,6.9,-,N/A,,Overcast,240,2013-03-03 04:10:00
8:30 PM,50.0,23.0,35,30.16,10.0,SW,6.9,-,N/A,,Overcast,230,2013-03-03 04:30:00
8:50 PM,48.2,23.0,37,30.16,10.0,WSW,4.6,-,N/A,,Overcast,250,2013-03-03 04:50:00
9:10 PM,50.0,23.0,35,30.16,10.0,SW,3.5,-,N/A,,Mostly Cloudy,230,2013-03-03 05:10:00
9:30 PM,48.2,23.0,37,30.16,10.0,WSW,6.9,-,N/A,,Overcast,240,2013-03-03 05:30:00
9:50 PM,48.2,23.0,37,30.16,10.0,West,8.1,-,N/A,,Overcast,260,2013-03-03 05:50:00
10:10 PM,46.4,24.8,43,30.16,10.0,West,8.1,-,N/A,,Overcast,260,2013-03-03 06:10:00
10:30 PM,48.2,26.6,43,30.15,10.0,West,8.1,-,N/A,,Overcast,260,2013-03-03 06:30:00
10:50 PM,48.2,26.6,43,30.14,10.0,West,6.9,-,N/A,,Overcast,260,2013-03-03 06:50:00
11:10 PM,48.2,26.6,43,30.14,10.0,WSW,6.9,-,N/A,,Overcast,250,2013-03-03 07:10:00
11:30 PM,48.2,26.6,43,30.13,10.0,WSW,4.6,-,N/A,,Overcast,240,2013-03-03 07:30:00
11:50 PM,48.2,26.6,43,30.13,10.0,Calm,Calm,-,N/A,,Overcast,0,2013-03-03 07:50:00